Regional Weather Roundup
Issued by NWS Northern Indiana

Home | Current Version | Previous Version | Graphics & Text | Print | Product List | Glossary On
Versions: 1 2 3 4 5 6 7 8 9 10 11 12 13 14 15 16 17 18 19 20 21 22 23 24 25 26 27 28 29 30 31 32 33 34 35 36 37 38 39 40 41 42 43 44 45 46 47 48 49 50
000
ASUS43 KIWX 261710
RWRIWX

KIWX WEATHER ROUNDUP
NATIONAL WEATHER SERVICE NORTHERN INDIANA
100 PM EDT SAT JUL 26 2014

NOTE: "FAIR" INDICATES FEW OR NO CLOUDS BELOW 12,000 FEET WITH NO
SIGNIFICANT WEATHER AND/OR OBSTRUCTIONS TO VISIBILITY.

* THESE STATIONS ARE NOT UNDER NWS QUALITY CONTROL. THEY ALSO MAY NOT
  REPORT WEATHER SUCH AS PRECIPITATION OR FOG.

INZ001>027-261800-
NORTHERN INDIANA

CITY           SKY/WX    TMP DP  RH WIND       PRES   REMARKS
GARY*          CLOUDY    77  66  69 SW8       29.87R
VALPARAISO     CLOUDY    75  67  76 SW9       29.88R
MICHIGAN CITY* CLOUDY    75  64  69 SW7       29.87R
LAPORTE*       CLOUDY    74  66  76 SW7       29.88S
KNOX*          CLOUDY    74  65  75 SW8       29.87S
SOUTH BEND     CLOUDY    77  65  66 SW12      29.86F
GOSHEN         CLOUDY    78  67  68 S6        29.86F
MONTICELLO*    CLOUDY    74  68  82 SW7       29.87R
LOGANSPORT*    CLOUDY    75  66  73 W9        29.89R
ROCHESTER*     CLOUDY    79  68  69 SW8       29.88S
WARSAW*        PTSUNNY   77  68  73 SW5       29.87F
ANGOLA*        CLOUDY    79  64  61 CALM      29.88F
FORT WAYNE     CLOUDY    79  66  64 SW6       29.88F
HUNTINGTON*    PTSUNNY   79  68  69 S5        29.87F
PERU/GRISSOM   CLOUDY    78  73  84 W9        29.88S
MARION*        CLOUDY    78  67  69 SW6       29.90R

$$
INZ028>050-261800-
CENTRAL INDIANA

CITY           SKY/WX    TMP DP  RH WIND       PRES   REMARKS
LAFAYETTE      CLOUDY    76  68  76 SW6       29.87S
KOKOMO*        CLOUDY    79  70  73 SW8       29.88S
MUNCIE*        MOSUNNY   80  67  64 SW9       29.89F
INDIANAPOLIS   MOSUNNY   79  69  71 SW10      29.88F

$$
MIZ043>046-050>051-056>058-064>065-071>073-077>080-261800-
SOUTHWEST LOWER MICHIGAN

CITY           SKY/WX    TMP DP  RH WIND       PRES   REMARKS
BATTLE CREEK   PTSUNNY   76  62  62 VRB5      29.87F
BENTON HARBOR  CLOUDY    72  63  73 W10       29.86R
COLDWATER*     MOSUNNY   77  65  65 SE6       29.87F
HILLSDALE*     PTSUNNY   76  62  61 CALM      29.90S
HOLLAND        CLOUDY    77  63  61 CALM      29.86F
GRAND RAPIDS   CLOUDY    78  64  61 VRB5      29.86F
KALAMAZOO      PTSUNNY   75  63  66 SE5       29.86F
STURGIS*       CLOUDY    77  66  69 S8        29.86F
THREE RIVERS*  PTSUNNY   76  67  71 S6        29.87F

$$
OHZ001>008-015>018-024>025-261800-
NORTHWEST OHIO

CITY           SKY/WX    TMP DP  RH WIND       PRES   REMARKS
WAUSEON*       CLOUDY    79  63  57 VRB6      29.89S
DEFIANCE       CLOUDY    77  63  61 S6        29.89F
FINDLAY        CLOUDY    78  63  59 S10       29.90F
TOLEDO EXPRESS MOSUNNY   79  61  53 S8        29.89F
TOLEDO METCALF PTSUNNY   79  61  53 S9        29.89F
LIMA           CLOUDY    77  65  66 S10       29.91F

$$
&&


USA.gov is the U.S. government's official web portal to all federal, state and local government web resources and services.